Temperature
18 18 18 17 17 17 17 18 18 18 18 18 18 18 18 18 17 17 17 17 17 17 17 17 17 17 17 17 17 17 17 16 16 16 16 16 16 15 15 15 15 15 15
18 18 18 17 17 17 17 17 17 18 18 18 18 18 18 18 17 17 17 17 17 17 17 17 17 17 17 17 17 17 17 16 16 16 16 16 16 16 15 15 15 15 15
18 18 17 17 17 17 17 17 17 17 18 18 18 18 18 18 18 18 18 18 17 17 17 17 17 17 17 17 17 17 17 17 17 17 16 16 16 16 15 15 15 15 14
18 18 17 17 17 17 17 17 17 17 17 18 18 18 18 18 18 18 18 18 18 18 17 17 17 17 17 17 17 17 17 17 17 17 17 16 16 16 15 15 15 15 15
18 18 18 18 18 18 17 17 17 17 17 17 17 17 18 18 18 18 18 18 18 18 18 18 17 17 17 17 17 17 17 17 17 17 17 16 16 16 15 15 15 15 15
18 18 18 18 18 18 18 17 17 17 17 17 17 17 17 18 18 18 18 18 18 18 18 18 18 17 17 17 17 17 17 17 17 17 16 16 16 16 16 15 15 15 15
18 18 18 18 18 18 17 17 17 17 16 16 16 16 17 17 18 18 19 19 19 19 18 18 18 18 18 17 17 17 17 17 17 16 16 16 16 16 16 15 15 15 15
18 18 18 18 18 17 17 17 16 16 16 16 16 16 16 16 18 18 19 19 19 19 19 19 19 18 18 18 18 17 17 17 17 16 16 16 16 16 16 15 15 15 15
18 18 18 18 18 17 17 17 16 16 16 16 15 15 15 16 16 17 18 19 19 19 19 19 19 18 18 18 18 18 18 17 17 17 16 16 16 16 16 15 15 15 15
18 18 18 17 17 17 16 16 16 15 15 15 15 15 15 15 15 16 17 18 18 18 18 18 18 18 18 18 18 18 18 17 17 17 17 16 16 16 16 16 15 15 15
17 17 17 17 17 16 16 15 15 15 15 15 15 15 15 15 15 15 16 17 17 17 17 17 17 18 18 18 18 18 17 17 17 17 17 17 17 16 16 16 15 15 15
16 16 16 16 16 16 15 15 15 15 15 15 15 15 15 15 15 15 15 16 16 16 17 17 17 17 17 17 17 17 17 17 17 17 17 17 17 17 16 16 15 15 15
16 16 16 16 15 15 15 15 14 14 14 14 14 14 14 14 14 14 15 15 15 15 16 16 16 16 16 16 17 17 17 17 17 17 17 17 17 17 16 16 15 15 15
15 15 15 15 15 15 14 14 14 14 14 14 14 14 14 14 14 14 14 14 14 14 15 15 16 16 16 16 16 16 16 16 16 16 16 17 17 16 16 16 15 15 15
14 14 14 15 14 14 14 14 14 14 14 13 13 13 13 13 13 13 13 13 13 13 14 14 15 15 15 15 16 16 16 16 16 16 16 16 16 16 16 15 15 15 14
14 14 14 14 14 14 14 14 13 13 13 13 13 13 13 13 13 13 13 13 13 12 13 14 14 15 15 15 15 15 15 15 15 16 16 15 15 15 15 15 15 14 14
14 14 14 14 14 13 13 13 13 13 13 13 13 13 13 13 13 13 13 13 13 13 12 13 14 14 15 15 15 15 15 15 15 15 15 15 15 15 15 14 14 14 14
14 13 13 13 13 13 12 12 12 12 12 12 12 12 12 12 12 12 12 12 12 13 13 13 14 14 15 15 15 15 15 15 14 14 14 14 14 14 14 14 14 13 13
13 13 13 13 13 12 12 12 12 12 12 12 12 11 11 11 11 12 12 12 12 13 13 13 13 14 14 14 14 14 14 14 14 14 14 13 13 13 13 13 13 13 13
12 12 12 12 12 11 11 11 11 11 11 11 11 11 11 11 11 11 11 12 12 12 12 12 13 13 13 13 13 13 13 13 13 13 13 13 13 13 13 13 13 13 13
12 12 12 12 11 11 11 11 11 11 11 11 11 11 11 11 11 11 11 11 11 12 12 12 12 12 12 12 12 12 13 13 13 13 13 13 13 13 13 13 13 13 13
12 12 11 11 11 11 11 11 11 11 11 11 10 10 10 10 11 11 11 11 11 11 11 11 11 11 11 11 12 12 12 12 12 12 13 13 13 13 14 14 14 14 14
11 11 11 11 11 11 11 11 11 11 11 11 10 10 10 10 11 11 11 11 11 11 11 11 11 10 11 11 11 12 12 12 12 12 12 13 13 13 13 13 13 14 14
11 11 11 11 11 11 11 10 10 10 10 10 10 10 10 10 10 10 11 11 11 11 11 11 11 11 11 11 11 11 11 11 11 11 12 12 12 12 13 13 13 13 13
10 10 10 10 10 10 10 10 10 10 10 10 10 10 10 10 10 10 10 11 11 11 10 10 10 11 11 11 11 11 11 11 11 11 11 11 11 11 12 12 13 13 13
10 10 10 10 10 10 10 10 10 9 9 9 9 9 9 9 9 10 10 10 10 10 10 10 11 11 11 11 11 11 11 11 11 10 10 10 10 11 11 11 12 12 12
Wind_Speed
6 7 7 9 11 11 10 9 8 8 9 10 10 11 11 12 13 13 13 17 18 17 16 15 14 14 15 15 14 14 14 14 14 15 16 17 18 20 21 22 22 22 21
9 7 7 7 9 11 11 9 8 7 7 7 9 10 11 12 13 14 14 15 17 18 17 16 15 14 14 14 14 13 14 14 14 14 15 15 16 17 20 23 24 24 22
12 9 8 8 9 12 11 8 8 7 7 8 10 10 9 11 12 13 14 14 15 16 17 17 16 15 15 15 14 13 13 14 14 14 15 15 16 17 19 23 26 26 24
14 9 8 9 10 9 7 6 6 6 7 8 8 9 9 8 11 12 13 13 13 13 15 16 17 17 16 15 14 14 14 14 14 15 15 15 16 17 18 21 26 28 26
12 9 7 7 8 6 6 7 6 6 7 8 8 9 9 9 10 11 11 12 13 14 13 14 16 17 16 15 15 15 15 15 16 16 16 16 16 16 17 20 25 29 29
7 6 5 5 5 4 5 6 7 7 7 8 9 10 9 10 9 10 11 10 11 13 13 12 12 12 15 16 16 16 17 17 18 18 18 17 16 16 16 18 23 30 31
1 2 2 3 3 4 6 6 6 8 7 5 5 7 8 10 10 10 9 9 10 10 11 11 11 11 11 14 16 17 18 18 19 20 19 18 17 16 16 16 20 30 32
2 1 2 3 3 4 6 7 6 6 5 5 5 5 5 5 5 7 7 7 8 6 7 9 10 10 11 10 12 16 16 17 19 20 20 20 18 17 16 16 18 29 33
2 2 2 3 4 4 6 7 7 9 8 6 7 7 5 5 3 3 3 3 3 3 4 5 7 9 10 10 10 13 16 17 17 18 19 18 18 17 16 17 17 27 33
2 3 3 3 4 4 5 7 7 8 9 8 6 8 8 6 5 4 3 2 2 2 3 3 4 5 8 9 10 13 15 16 16 16 16 16 15 16 16 17 17 26 33
1 3 3 3 4 4 5 6 7 7 7 8 7 5 7 7 8 7 6 4 2 2 3 4 4 4 6 7 9 11 14 14 13 13 12 13 15 16 17 17 17 24 33
1 3 4 4 4 4 4 5 5 5 5 6 6 5 5 4 5 6 8 5 4 3 3 4 4 4 5 6 8 11 11 11 10 9 10 12 14 16 17 17 17 22 31
1 3 3 3 3 4 5 5 5 5 5 4 4 3 3 4 2 3 4 3 3 3 3 3 4 4 4 5 5 7 7 7 7 7 9 11 14 15 16 17 17 21 29
1 1 2 3 4 4 5 5 4 5 5 4 5 4 2 3 2 1 1 1 2 2 3 4 3 4 3 3 4 4 4 4 4 5 8 10 11 12 13 15 16 22 29
1 2 2 3 4 4 5 5 4 4 4 4 4 4 3 3 3 2 2 2 2 3 3 3 3 3 3 3 3 3 3 3 3 4 6 7 6 6 9 13 17 23 28
2 3 4 4 5 5 5 4 4 4 4 4 3 4 3 3 3 3 2 2 2 3 4 3 4 5 5 4 4 4 3 2 1 2 2 2 0 4 10 14 20 25 28
3 4 4 5 5 6 6 5 5 4 4 4 4 5 6 5 4 4 4 3 2 2 5 5 4 4 5 4 2 2 2 1 0 0 1 3 5 10 14 18 22 26 28
5 5 5 6 6 6 6 6 5 5 5 6 7 7 7 6 6 5 5 5 4 3 4 6 4 3 4 3 1 2 2 2 1 1 3 5 9 13 17 20 23 25 26
6 7 7 7 6 6 6 6 6 7 8 8 7 7 6 6 7 6 6 6 5 4 3 4 4 3 3 2 2 1 2 1 2 3 3 5 9 13 16 19 21 23 24
7 6 6 6 5 5 6 6 7 7 7 7 7 7 6 6 6 6 6 7 6 6 5 4 3 3 3 3 2 0 1 1 1 2 2 4 7 10 13 16 19 21 22
6 6 6 6 6 5 5 6 7 7 7 8 9 9 9 10 10 7 5 6 6 6 6 5 5 4 5 5 4 2 1 1 1 2 2 2 4 5 7 11 14 17 19
6 6 6 6 7 6 9 11 8 8 9 9 9 8 9 12 12 12 11 9 8 6 6 5 5 5 6 5 5 4 1 1 2 2 3 3 4 5 6 8 13 16 18
5 6 5 6 6 7 11 12 12 9 9 9 9 9 8 10 12 10 10 10 10 10 8 3 5 5 5 5 7 6 4 1 0 1 2 3 3 4 5 8 14 17 19
5 5 5 5 6 7 9 11 11 8 8 8 8 8 8 9 11 10 9 11 11 11 10 6 4 5 5 6 5 4 4 2 2 3 2 1 1 1 2 4 11 16 18
5 5 5 6 7 6 7 7 7 6 7 7 7 8 9 9 13 13 11 10 10 10 10 11 11 10 11 12 9 6 6 5 3 4 4 2 1 1 0 1 3 8 11
6 7 7 6 7 7 8 6 5 4 5 4 5 6 10 11 12 11 8 8 9 7 8 10 11 12 12 12 13 9 6 5 3 3 4 2 2 2 1 1 1 2 4
Wind_Direction
238 244 249 254 259 263 262 260 255 256 260 264 264 264 267 268 267 264 265 270 272 271 272 269 262 256 253 253 249 246 246 248 248 245 243 242 241 236 227 214 208 206 203
236 240 248 252 256 256 254 250 250 255 264 267 269 265 264 267 268 266 264 267 267 265 264 261 257 253 253 253 250 246 245 247 248 247 245 244 243 240 230 218 210 206 203
234 237 245 253 255 253 249 250 255 258 265 268 270 268 266 265 265 263 262 260 262 261 258 255 253 253 253 252 250 246 245 245 247 248 249 248 247 244 235 221 210 205 202
235 234 240 250 252 248 241 241 246 253 258 262 268 273 270 267 266 264 262 258 255 254 251 247 247 249 250 251 249 246 244 246 249 250 252 252 250 247 240 225 211 202 199
229 225 234 246 250 242 240 245 245 240 254 260 265 272 272 270 267 267 262 258 252 247 244 242 242 245 249 249 248 245 244 246 249 251 252 252 251 250 243 230 213 200 196
220 216 229 244 245 246 252 249 255 253 252 260 271 274 273 272 268 263 262 260 255 248 240 237 239 243 244 244 243 243 246 247 247 249 251 251 250 249 244 234 217 200 194
194 201 242 267 263 256 260 260 262 266 262 251 264 276 270 264 260 259 254 253 254 248 238 232 231 232 238 240 242 245 248 249 248 247 249 251 250 248 245 234 220 200 192
31 1 312 295 285 278 276 268 261 266 263 233 240 267 286 292 266 254 248 247 252 247 241 234 228 227 231 235 237 240 246 252 253 250 249 249 249 247 245 236 223 200 192
16 354 323 313 302 287 283 279 268 265 270 257 228 235 247 253 294 292 267 257 255 251 251 244 236 234 231 231 237 241 244 248 252 256 254 250 249 247 243 236 225 201 191
0 3 352 341 327 313 296 288 279 268 269 271 253 231 233 232 237 284 297 283 283 266 279 277 267 255 242 236 236 240 244 245 246 251 257 258 257 252 243 234 227 204 191
18 19 8 2 354 339 322 309 302 286 273 270 265 253 244 240 232 237 267 287 304 285 281 285 283 275 263 250 245 245 244 244 242 246 256 264 266 259 247 236 229 207 193
42 24 15 14 4 352 341 332 323 317 303 286 276 259 247 239 225 226 240 255 271 282 289 285 279 279 274 268 260 253 248 242 241 250 263 269 268 262 248 236 226 207 193
58 13 7 4 1 353 349 345 341 344 342 335 321 296 275 263 249 229 234 247 255 273 287 278 263 270 275 274 272 263 247 239 248 265 276 278 273 261 243 228 218 201 188
114 5 4 6 3 360 358 354 346 346 348 359 10 14 10 3 352 328 278 251 265 271 262 269 286 274 278 274 269 258 250 248 268 285 291 289 279 258 232 212 204 185 177
120 39 30 20 7 1 357 352 343 343 348 360 6 14 19 11 10 358 340 308 279 281 280 272 283 298 292 273 248 238 241 260 273 296 304 301 287 243 204 188 174 164 163
72 48 32 22 9 1 355 350 336 337 355 357 358 12 16 11 4 354 331 301 272 267 277 276 263 277 284 273 238 222 225 226 256 306 321 334 36 150 153 152 150 150 153
52 47 37 28 19 10 1 357 351 351 6 12 22 29 24 22 20 11 4 349 321 281 274 283 264 277 272 265 227 187 182 184 200 138 104 107 118 127 133 137 140 143 148
56 55 51 43 31 20 12 11 13 26 37 40 36 37 29 31 33 19 15 9 348 316 283 292 300 308 297 308 269 176 154 167 149 144 137 128 127 128 130 134 138 142 148
68 60 56 47 33 24 25 35 51 55 54 46 37 35 24 30 31 20 17 13 356 347 331 318 323 324 323 342 345 113 142 126 146 153 145 134 133 133 135 139 143 148 153
78 63 53 43 34 34 43 55 61 58 51 42 34 29 24 27 20 10 12 11 6 8 6 1 350 343 331 328 337 338 169 151 152 162 141 132 140 141 145 148 153 157 162
82 68 58 47 40 43 49 65 62 56 46 40 33 30 31 34 31 23 17 8 13 18 17 18 14 7 3 358 351 334 233 159 151 152 153 157 151 153 162 165 168 172 176
83 71 59 55 49 47 66 73 76 65 54 46 35 23 26 27 17 16 18 24 28 24 17 19 18 12 360 350 337 329 304 177 181 169 169 174 173 180 181 187 193 193 195
95 81 67 66 63 59 78 81 79 76 62 48 39 31 30 19 16 11 10 23 31 31 27 12 19 7 345 336 337 342 347 345 45 119 154 166 181 199 199 203 203 207 211
103 90 76 74 75 65 86 92 86 77 67 52 41 34 32 23 17 12 22 27 29 29 25 28 14 348 333 329 330 321 324 350 45 34 28 103 142 203 199 208 212 215 220
104 88 79 78 79 60 66 98 91 77 65 49 35 32 30 24 8 21 33 28 27 22 23 37 39 29 20 16 10 14 13 20 26 23 15 29 35 21 347 250 218 218 222
112 100 83 71 73 62 52 82 100 88 71 45 26 23 23 18 10 21 34 33 26 4 2 20 26 23 22 21 23 25 13 18 14 17 6 17 20 15 354 336 262 220 218
Height
1547 1547 1548 1548 1548 1548 1548 1547 1547 1546 1545 1544 1543 1543 1542 1542 1541 1540 1539 1539 1539 1538 1538 1537 1537 1536 1536 1536 1536 1536 1536 1536 1536 1537 1537 1538 1539 1539 1540 1542 1543 1545 1547
1545 1545 1545 1545 1545 1545 1545 1544 1543 1543 1542 1541 1540 1540 1539 1539 1538 1537 1536 1535 1535 1534 1534 1533 1533 1533 1533 1533 1533 1533 1533 1533 1533 1533 1533 1534 1534 1535 1536 1537 1538 1541 1543
1542 1542 1542 1542 1542 1542 1541 1541 1540 1539 1538 1537 1537 1536 1535 1534 1533 1532 1531 1531 1530 1530 1530 1529 1529 1529 1529 1529 1529 1530 1530 1530 1530 1530 1530 1530 1530 1531 1531 1532 1534 1536 1538
1539 1538 1538 1538 1538 1538 1537 1537 1536 1535 1534 1533 1532 1532 1531 1530 1529 1528 1527 1526 1526 1526 1526 1525 1525 1525 1526 1526 1526 1526 1527 1527 1527 1527 1527 1526 1526 1526 1526 1527 1528 1531 1533
1535 1534 1534 1534 1534 1533 1533 1532 1531 1531 1529 1529 1528 1527 1526 1525 1524 1523 1522 1521 1521 1521 1522 1521 1521 1522 1522 1522 1522 1523 1523 1524 1524 1524 1523 1523 1522 1522 1521 1522 1523 1525 1528
1531 1530 1530 1530 1530 1529 1528 1528 1527 1525 1524 1524 1522 1521 1520 1520 1518 1517 1516 1516 1516 1517 1517 1517 1517 1518 1518 1519 1519 1519 1520 1520 1520 1520 1519 1519 1518 1517 1516 1516 1517 1520 1523
1527 1527 1527 1526 1525 1524 1523 1522 1521 1519 1518 1518 1516 1514 1513 1513 1512 1511 1511 1511 1511 1512 1512 1512 1513 1513 1514 1515 1515 1515 1516 1516 1516 1515 1515 1515 1514 1512 1511 1511 1512 1514 1517
1522 1522 1522 1521 1520 1518 1517 1516 1515 1513 1511 1512 1511 1509 1506 1505 1504 1505 1505 1504 1505 1506 1506 1507 1507 1508 1509 1509 1510 1510 1511 1511 1511 1510 1510 1509 1508 1507 1506 1506 1506 1508 1511
1517 1518 1517 1515 1514 1513 1511 1510 1509 1507 1504 1504 1505 1505 1503 1499 1500 1499 1499 1499 1499 1500 1501 1501 1501 1502 1503 1503 1504 1505 1505 1506 1506 1505 1504 1504 1502 1501 1499 1499 1500 1502 1505
1513 1513 1512 1511 1509 1507 1506 1504 1503 1501 1499 1497 1498 1498 1498 1498 1498 1495 1495 1495 1495 1496 1496 1496 1496 1497 1497 1498 1498 1499 1499 1500 1500 1499 1499 1497 1496 1494 1493 1492 1494 1496 1499
1508 1508 1508 1506 1505 1503 1502 1500 1499 1497 1495 1493 1492 1492 1492 1492 1492 1492 1491 1491 1491 1491 1491 1491 1491 1492 1492 1492 1492 1493 1493 1494 1494 1493 1492 1491 1489 1487 1486 1486 1487 1490 1494
1503 1504 1503 1502 1501 1500 1499 1497 1495 1493 1491 1490 1488 1487 1487 1487 1486 1487 1487 1486 1486 1486 1486 1486 1487 1487 1487 1487 1487 1487 1488 1488 1488 1487 1486 1484 1482 1480 1479 1479 1481 1484 1488
1500 1500 1500 1499 1498 1497 1496 1495 1493 1491 1489 1487 1486 1484 1484 1483 1483 1483 1483 1482 1482 1481 1481 1482 1482 1482 1482 1482 1482 1482 1482 1482 1482 1481 1479 1477 1475 1473 1472 1473 1476 1479 1484
1496 1496 1496 1496 1495 1495 1493 1492 1491 1489 1488 1486 1484 1483 1482 1481 1481 1480 1480 1480 1479 1478 1477 1478 1478 1478 1478 1478 1477 1477 1477 1477 1476 1475 1474 1471 1469 1468 1467 1469 1471 1475 1480
1493 1493 1494 1494 1493 1492 1491 1491 1490 1488 1487 1485 1484 1483 1481 1480 1479 1478 1478 1478 1478 1476 1474 1474 1474 1474 1474 1473 1472 1473 1472 1472 1472 1470 1469 1467 1465 1464 1464 1465 1468 1472 1477
1490 1491 1492 1492 1491 1491 1490 1489 1488 1487 1486 1485 1484 1483 1482 1480 1479 1478 1477 1476 1476 1475 1473 1472 1471 1471 1470 1469 1469 1468 1468 1468 1468 1467 1465 1463 1462 1461 1462 1464 1466 1470 1475
1490 1490 1490 1490 1490 1489 1489 1488 1488 1487 1486 1485 1484 1482 1481 1479 1478 1477 1476 1475 1474 1473 1471 1469 1468 1467 1466 1466 1465 1465 1465 1465 1465 1464 1463 1462 1461 1461 1461 1463 1466 1469 1474
1489 1489 1489 1489 1489 1489 1489 1488 1488 1487 1486 1485 1483 1482 1481 1479 1478 1477 1475 1474 1472 1471 1470 1467 1465 1464 1463 1463 1462 1462 1462 1462 1462 1462 1461 1461 1461 1461 1462 1464 1466 1470 1474
1488 1488 1488 1488 1488 1489 1489 1489 1488 1487 1486 1485 1484 1482 1481 1480 1479 1477 1475 1473 1472 1470 1468 1466 1464 1462 1461 1460 1459 1459 1459 1459 1460 1460 1460 1461 1461 1462 1463 1465 1467 1471 1475
1488 1489 1489 1489 1490 1490 1490 1489 1489 1488 1487 1486 1485 1484 1483 1481 1480 1478 1476 1474 1471 1469 1467 1465 1463 1462 1460 1458 1457 1457 1457 1457 1458 1459 1460 1461 1461 1462 1464 1466 1469 1472 1477
1489 1490 1491 1491 1492 1492 1491 1491 1490 1490 1489 1488 1487 1486 1485 1483 1482 1480 1478 1475 1473 1470 1467 1465 1463 1461 1459 1458 1456 1455 1455 1455 1455 1457 1458 1460 1461 1462 1464 1467 1470 1474 1478
1490 1491 1492 1493 1493 1494 1493 1493 1493 1492 1492 1491 1490 1489 1488 1486 1484 1482 1480 1477 1475 1472 1469 1466 1464 1462 1460 1458 1456 1455 1454 1453 1453 1455 1457 1459 1461 1463 1465 1467 1470 1474 1477
1491 1492 1493 1494 1495 1496 1496 1495 1495 1495 1495 1494 1492 1491 1490 1489 1487 1484 1482 1479 1477 1474 1472 1470 1467 1465 1462 1460 1457 1455 1453 1452 1452 1453 1455 1456 1459 1461 1464 1467 1470 1473 1476
1491 1493 1494 1495 1496 1497 1497 1498 1497 1497 1497 1496 1495 1493 1492 1490 1488 1486 1484 1481 1479 1477 1474 1473 1471 1468 1466 1463 1460 1457 1455 1453 1452 1451 1452 1453 1456 1459 1462 1465 1468 1470 1473
1492 1493 1494 1495 1496 1497 1498 1499 1499 1498 1498 1497 1496 1495 1493 1491 1490 1488 1485 1483 1481 1479 1477 1476 1474 1472 1469 1466 1463 1461 1458 1456 1454 1453 1452 1452 1454 1456 1458 1461 1464 1466 1468
1491 1493 1494 1496 1497 1497 1498 1499 1499 1498 1498 1497 1496 1495 1493 1491 1490 1488 1486 1484 1482 1481 1479 1478 1476 1474 1472 1469 1466 1464 1462 1460 1458 1457 1456 1455 1454 1455 1456 1457 1459 1461 1463